Portland Hillsboro, OR

6:26 PM PDT on June 28, 2017 (GMT -0700)
Portland-Hillsboro

Weather History for KHIO - March, 2014

Change the Weather History Date:

Sunday, March 30, 2014

  Actual Average Record
Temperature  
Mean Temperature 45 °F 48 °F  
Max Temperature 54 °F 58 °F 76 °F (2013)
Min Temperature 36 °F 38 °F 24 °F (1954)
Degree Days  
Heating Degree Days 20 17  
Month to date heating degree days 528 570  
Since 1 July heating degree days 4224 4097  
Cooling Degree Days 0 0  
Month to date cooling degree days 0 0  
Year to date cooling degree days 0 0  
Moisture  
Dew Point 39 °F    
Average Humidity 73    
Maximum Humidity 92    
Minimum Humidity 54    
Precipitation  
Precipitation 0.02 in 0.12 in 1.87 in (1943)
Month to date precipitation 6.01 3.61  
Year to date precipitation 13.48 14.08  
Snow  
Snow 0.00 in - - ()
Month to date snowfall 0.0  
Since 1 July snowfall 0.0  
Snow Depth 0.00 in    
Sea Level Pressure  
Sea Level Pressure 29.98 in    
Wind  
Wind Speed 6 mph (SSW)    
Max Wind Speed 17 mph    
Max Gust Speed 21 mph    
Visibility 10 miles    
Events Rain    
T = Trace of Precipitation, MM = Missing Value Source: NWS Daily Summary

Daily Weather History Graph

Daily Weather History Graph

Search for Another Location

Airport or City:

Trip Planner

Search our weather history database for the weather conditions in past years. The results will help you decide how hot, cold, wet, or windy it might be!

Date:

Astronomy

Mar. 30, 2014 Rise Set
Actual Time 6:55 AM PDT 7:37 PM PDT
Civil Twilight 6:25 AM PDT 8:07 PM PDT
Nautical Twilight 5:50 AM PDT 8:43 PM PDT
Astronomical Twilight 5:13 AM PDT 9:20 PM PDT
Moon 6:44 AM PDT (3/30) 7:58 PM PDT (3/30)
Length of Visible Light 13h 41m
Length of Day
12h 41m
New Moon, 0% of the Moon is Illuminated
Mar 30
New Moon
Apr 7
First Quarter
Apr 15
Full
Apr 22
Last Quarter
Apr 28
New

Hourly Weather History & Observations

Time (PDT) Temp. Windchill Dew Point Humidity Pressure Visibility Wind Dir Wind Speed Gust Speed Precip Events Conditions
12:53 AM 45.0 °F 43.5 °F 41.0 °F 86% 29.92 in 10.0 mi SSW 3.5 mph - N/A   Mostly Cloudy
1:53 AM 45.0 °F 42.6 °F 41.0 °F 86% 29.93 in 10.0 mi South 4.6 mph - N/A   Overcast
2:53 AM 45.0 °F 42.6 °F 41.0 °F 86% 29.94 in 10.0 mi WSW 4.6 mph - N/A   Overcast
3:53 AM 43.0 °F 39.5 °F 39.9 °F 89% 29.94 in 10.0 mi South 5.8 mph - 0.00 in   Scattered Clouds
4:53 AM 44.1 °F 40.8 °F 39.9 °F 85% 29.96 in 10.0 mi WSW 5.8 mph - 0.01 in   Overcast
5:53 AM 42.1 °F 37.1 °F 39.0 °F 89% 29.97 in 10.0 mi SSW 8.1 mph - N/A   Scattered Clouds
6:53 AM 37.9 °F 34.4 °F 35.1 °F 89% 29.99 in 10.0 mi NE 4.6 mph - N/A   Partly Cloudy
7:53 AM 39.9 °F 37.8 °F 37.9 °F 93% 30.01 in 10.0 mi SE 3.5 mph - N/A   Clear
8:53 AM 44.1 °F 42.5 °F 39.0 °F 82% 30.01 in 10.0 mi ESE 3.5 mph - N/A   Mostly Cloudy
9:53 AM 46.9 °F - 39.9 °F 77% 30.02 in 10.0 mi SSW 4.6 mph - N/A   Overcast
10:53 AM 48.0 °F - 39.9 °F 74% 30.02 in 10.0 mi SSW 6.9 mph - N/A   Overcast
11:10 AM 48.0 °F - 39.0 °F 71% 30.01 in 10.0 mi Variable 3.5 mph - N/A   Overcast
11:53 AM 50.0 °F - 39.0 °F 66% 30.01 in 10.0 mi SW 6.9 mph - N/A   Overcast
12:53 PM 51.1 °F - 37.9 °F 61% 30.00 in 10.0 mi SSW 4.6 mph - N/A   Mostly Cloudy
1:53 PM 53.1 °F - 37.0 °F 55% 29.99 in 10.0 mi South 15.0 mph - N/A   Partly Cloudy
2:53 PM 54.0 °F - 37.0 °F 53% 29.99 in 10.0 mi SW 10.4 mph - N/A   Mostly Cloudy
3:53 PM 52.0 °F - 37.9 °F 59% 29.99 in 10.0 mi South 9.2 mph - N/A   Mostly Cloudy
4:53 PM 48.9 °F - 37.9 °F 66% 29.99 in 9.0 mi South 12.7 mph 19.6 mph 0.01 in Rain Light Rain
5:53 PM 48.9 °F - 39.9 °F 71% 29.99 in 10.0 mi South 11.5 mph - 0.00 in   Overcast
6:53 PM 48.0 °F - 39.0 °F 71% 29.99 in 10.0 mi SW 5.8 mph - N/A   Mostly Cloudy
7:53 PM 46.0 °F 43.9 °F 39.0 °F 76% 29.99 in 10.0 mi West 4.6 mph - N/A   Mostly Cloudy
8:53 PM 43.0 °F - 39.0 °F 86% 29.99 in 10.0 mi Calm Calm - N/A   Partly Cloudy
9:53 PM 43.0 °F - 39.0 °F 86% 29.99 in 10.0 mi Calm Calm - N/A   Partly Cloudy
10:53 PM 39.9 °F 37.8 °F 37.0 °F 89% 29.98 in 10.0 mi East 3.5 mph - N/A   Clear
11:53 PM 37.9 °F - 36.0 °F 93% 29.97 in 10.0 mi Calm Calm - N/A   Clear